Oujda, Morocco

9:51 PM WET on February 20, 2018 (GMT +0000)
Oujda

Weather History for GMFO - December, 2013

Change the Weather History Date:

Monday, December 2, 2013

  Actual Average Record
Temperature  
Mean Temperature 50 °F -  
Max Temperature 58 °F 60 °F 73 °F (2016)
Min Temperature 41 °F 41 °F 33 °F (2008)
Degree Days  
Heating Degree Days 16    
Moisture  
Dew Point 43 °F    
Average Humidity 79    
Maximum Humidity 100    
Minimum Humidity 44    
Precipitation  
Precipitation 0.00 in 0.06 in - ()
Sea Level Pressure  
Sea Level Pressure 30.07 in    
Wind  
Wind Speed 3 mph ()    
Max Wind Speed 8 mph    
Max Gust Speed -    
Visibility 6.6 miles    
Events      
Averages and records for this station are not official NWS values.
T = Trace of Precipitation, MM = Missing Value Source: Averaged Metar Reports

Daily Weather History Graph

Daily Weather History Graph

Search for Another Location

Airport or City:

Trip Planner

Search our weather history database for the weather conditions in past years. The results will help you decide how hot, cold, wet, or windy it might be!

Date:

Astronomy

Dec. 02, 2013 Rise Set
Actual Time 6:57 AM WET 4:56 PM WET
Civil Twilight 6:30 AM WET 5:24 PM WET
Nautical Twilight 5:58 AM WET 5:55 PM WET
Astronomical Twilight 5:28 AM WET 6:25 PM WET
Moon 6:08 AM WET (12/2) 4:44 PM WET (12/2)
Length of Visible Light 10h 54m
Length of Day
9h 58m
Waning Crescent, 0% of the Moon is Illuminated
Dec 2
Waning Crescent
Dec 3
New
Dec 9
First Quarter
Dec 17
Full
Dec 25
Last Quarter

Hourly Weather History & Observations

Time (WET) Temp. Windchill Dew Point Humidity Pressure Visibility Wind Dir Wind Speed Gust Speed Precip Events Conditions
12:00 AM 45 °F - 44 °F 94% 30.05 in 5 mi WSW 4.6 mph - -   Partly Cloudy
12:00 AM 44.6 °F 42.2 °F 44.6 °F 100% 30.01 in 5.0 mi WSW 4.6 mph - N/A   Scattered Clouds
3:00 AM 45 °F - 44 °F 95% 30.05 in 6 mi NNE 1.2 mph - -   Partly Cloudy
3:00 AM 44.6 °F - 44.6 °F 100% 30.01 in 6.2 mi NNE 1.2 mph - N/A   Scattered Clouds
4:00 AM 44.6 °F - 44.6 °F 100% 30.01 in 6.2 mi East 2.3 mph - N/A   Scattered Clouds
5:00 AM 44.6 °F 43.1 °F 42.8 °F 93% 30.01 in 6.2 mi South 3.5 mph - N/A   Scattered Clouds
6:00 AM 41.0 °F 39.0 °F 41.0 °F 100% 30.04 in 6.2 mi South 3.5 mph - N/A   Scattered Clouds
7:00 AM 42.8 °F 39.3 °F 41.0 °F 93% 30.04 in 6.2 mi WSW 5.8 mph - N/A   Scattered Clouds
8:00 AM - - - N/A% 30.06 in 6.2 mi West 1.2 mph - N/A   Mostly Cloudy
9:00 AM 46 °F - 45 °F 96% 30.11 in 9 mi South 2.3 mph - -   Scattered Clouds
9:00 AM 48.2 °F - 44.6 °F 87% 30.09 in 6.2 mi South 4.6 mph - N/A   Scattered Clouds
10:00 AM 50.0 °F - 48.2 °F 94% 30.09 in 6.2 mi SW 3.5 mph - N/A   Partly Cloudy
11:00 AM 53.6 °F - 46.4 °F 77% 30.09 in 6.2 mi Variable 3.5 mph - N/A   Scattered Clouds
12:00 PM 56 °F - 42 °F 48% 30.07 in 9 mi South 2.3 mph - -  
2:00 PM 57.2 °F - 42.8 °F 59% 30.04 in 6.2 mi ESE 3.5 mph - N/A   Scattered Clouds
2:46 PM 58 °F - 42 °F 44% 30.05 in 9 mi SSW 6.9 mph - -   Partly Cloudy
3:00 PM 57.2 °F - 42.8 °F 59% 30.06 in 6.2 mi SSW 6.9 mph - N/A   Scattered Clouds
4:00 PM 55.4 °F - 41.0 °F 58% 30.06 in 6.2 mi SSW 4.6 mph - N/A   Mostly Cloudy
5:00 PM 53.6 °F - 41.0 °F 62% 30.09 in 6.2 mi South 6.9 mph - N/A   Mostly Cloudy
7:00 PM 51.8 °F - 41.0 °F 67% 30.12 in - SSE 8.1 mph - N/A   Mostly Cloudy
8:00 PM 50.0 °F - 41.0 °F 71% 30.12 in 6.2 mi SSE 3.5 mph - N/A   Mostly Cloudy
9:00 PM 46 °F - 39 °F 69% 30.19 in 9 mi SE 4.6 mph - -   Scattered Clouds